Location: Unspecified
(17.6330°N, 0.0000°E)
Time: 11:29:31
(UTC+00:00)

Courier 1B Rocket - All Passes

Search period start: 20 June 2019 00:00
Search period end: 30 June 2019 00:00
Orbit: 920 x 1202 km, 28.2° (Epoch: 19 June)

Date Brightness Start Highest point End Pass type
(mag) Time Alt. Az. Time Alt. Az. Time Alt. Az.
20 Jun - 00:10:10 10° SSE 00:12:32 12° SSE 00:14:50 10° SE night (unlit)
20 Jun - 01:59:23 10° SW 02:06:11 41° SSE 02:12:33 10° E visible
20 Jun - 03:52:45 10° WSW 03:59:45 71° NNW 04:06:17 10° ENE visible
20 Jun - 05:47:43 10° WNW 05:53:44 35° N 05:59:29 10° NE daylight
20 Jun - 07:42:27 10° WNW 07:48:05 32° N 07:53:37 10° ENE daylight
20 Jun - 09:35:59 10° WNW 09:42:06 58° NNE 09:48:19 10° E daylight
20 Jun - 11:29:31 10° W 11:35:31 49° SSW 11:41:47 10° SE daylight
20 Jun - 13:26:01 10° WSW 13:28:53 13° SSW 13:31:48 10° S daylight
21 Jun - 00:58:46 10° SSW 01:05:02 29° SSE 01:10:59 10° E visible
21 Jun - 02:51:19 10° WSW 02:58:36 85° SSE 03:05:21 10° ENE visible
21 Jun - 04:45:59 10° W 04:52:27 42° NNW 04:58:32 10° NE visible
21 Jun - 06:41:04 10° WNW 06:46:46 31° N 06:52:16 10° ENE daylight
21 Jun - 08:34:58 10° WNW 08:40:59 45° NNE 08:46:56 10° E daylight
21 Jun - 10:28:21 10° WNW 10:34:34 72° SSW 10:40:55 10° ESE daylight
21 Jun - 12:23:17 10° WSW 12:27:49 20° SSW 12:32:30 10° SSE daylight
21 Jun - 23:58:36 10° SSW 00:03:49 20° SSE 00:08:51 10° ESE night (unlit)
22 Jun - 01:50:05 10° SW 01:57:26 62° SSE 02:04:16 10° ENE visible
22 Jun - 03:44:14 10° W 03:51:11 54° NNW 03:57:39 10° ENE visible
22 Jun - 05:39:27 10° WNW 05:45:24 32° N 05:51:04 10° ENE daylight
22 Jun - 07:33:53 10° NW 07:39:46 37° N 07:45:30 10° ENE daylight
22 Jun - 09:27:18 10° WNW 09:33:34 81° NNE 09:39:52 10° ESE daylight
22 Jun - 11:21:26 10° W 11:26:50 31° SSW 11:32:24 10° SSE daylight
22 Jun - 22:59:26 10° S 23:02:33 13° SSE 23:05:37 10° SE night (unlit)
23 Jun - 00:49:06 10° SW 00:56:15 44° SSE 01:02:59 10° E visible
23 Jun - 02:42:35 10° WSW 02:49:56 71° NNW 02:56:45 10° ENE visible
23 Jun - 04:37:42 10° WNW 04:44:02 36° N 04:50:00 10° ENE visible
23 Jun - 06:32:35 10° WNW 06:38:28 33° N 06:44:06 10° ENE daylight
23 Jun - 08:26:16 10° WNW 08:32:32 60° NNE 08:38:40 10° E daylight
23 Jun - 10:19:57 10° W 10:25:54 47° SSW 10:31:55 10° SE daylight
23 Jun - 12:16:59 10° SW 12:19:10 12° SSW 12:21:22 10° S daylight
23 Jun - 23:48:26 10° SSW 23:55:03 31° SSE 00:01:22 10° E night (unlit)
24 Jun - 01:41:06 10° WSW 01:48:42 87° SSE 01:55:46 10° ENE visible
24 Jun - 03:35:52 10° W 03:42:40 43° NNW 03:49:02 10° ENE visible
24 Jun - 05:31:05 10° WNW 05:37:06 32° N 05:42:48 10° ENE daylight
24 Jun - 07:25:10 10° WNW 07:31:23 46° NNE 07:37:22 10° E daylight
24 Jun - 09:18:42 10° WNW 09:24:58 70° SSW 09:31:11 10° ESE daylight
24 Jun - 11:13:52 10° WSW 11:18:09 19° SSW 11:22:29 10° SSE daylight
24 Jun - 22:48:15 10° SSW 22:53:47 21° SSE 22:59:12 10° ESE night (unlit)
25 Jun - 00:39:50 10° SW 00:47:27 64° SSE 00:54:38 10° ENE visible
25 Jun - 02:34:04 10° W 02:41:19 54° NNW 02:48:06 10° ENE visible
25 Jun - 04:29:23 10° WNW 04:35:41 34° N 04:41:36 10° ENE visible
25 Jun - 06:23:57 10° WNW 06:30:08 38° N 06:36:00 10° ENE daylight
25 Jun - 08:17:33 10° WNW 08:24:00 83° NNE 08:30:14 10° ESE daylight
25 Jun - 10:11:52 10° W 10:17:12 30° SSW 10:22:34 10° SSE daylight
25 Jun - 21:48:58 10° S 21:52:30 14° SSE 21:56:01 10° ESE night (unlit)
25 Jun - 23:38:51 10° SW 23:46:12 46° SSE 23:53:17 10° E night (unlit)
26 Jun - 01:32:22 10° WSW 01:39:59 70° NNW 01:47:08 10° ENE visible
26 Jun - 03:27:33 10° WNW 03:34:14 37° N 03:40:30 10° ENE visible
26 Jun - 05:22:33 10° WNW 05:28:47 35° N 05:34:39 10° ENE daylight
26 Jun - 07:16:24 10° WNW 07:22:56 61° NNE 07:29:08 10° E daylight
26 Jun - 09:10:17 10° W 09:16:18 45° SSW 09:22:12 10° SE daylight
26 Jun - 11:07:55 10° SW 11:09:29 11° SSW 11:11:03 10° SSW daylight
26 Jun - 22:38:12 10° SSW 22:44:58 32° SSE 22:51:35 10° E night (unlit)
27 Jun - 00:30:52 10° WSW 00:38:40 88° SSE 00:46:05 10° ENE visible
27 Jun - 02:25:40 10° W 02:32:47 44° NNW 02:39:29 10° ENE visible
27 Jun - 04:20:58 10° WNW 04:27:21 34° N 04:33:20 10° ENE visible
27 Jun - 06:15:12 10° WNW 06:21:44 48° NNE 06:27:53 10° E daylight
27 Jun - 08:08:55 10° WNW 08:15:23 68° SSW 08:21:34 10° SE daylight
27 Jun - 10:04:19 10° WSW 10:08:30 18° SSW 10:12:40 10° S daylight
27 Jun - 21:38:01 10° SSW 21:43:42 22° SSE 21:49:22 10° E night (unlit)
27 Jun - 23:29:36 10° SW 23:37:22 66° SSE 23:44:51 10° ENE night (unlit)
28 Jun - 01:23:50 10° W 01:31:21 55° NNW 01:38:28 10° ENE visible
28 Jun - 03:19:12 10° WNW 03:25:51 35° N 03:32:06 10° ENE visible
28 Jun - 05:13:53 10° WNW 05:20:25 40° N 05:26:33 10° E daylight
28 Jun - 07:07:39 10° WNW 07:14:22 85° NNE 07:20:42 10° ESE daylight
28 Jun - 09:02:10 10° W 09:07:35 29° SSW 09:12:52 10° SSE daylight
28 Jun - 20:38:45 10° S 20:42:27 14° SSE 20:46:08 10° ESE visible
28 Jun - 22:28:39 10° SW 22:36:05 47° SSE 22:43:25 10° E night (unlit)
29 Jun - 00:22:09 10° WSW 00:29:56 70° NNW 00:37:24 10° ENE visible
29 Jun - 02:17:20 10° WNW 02:24:19 39° N 02:30:56 10° ENE visible
29 Jun - 04:12:24 10° WNW 04:19:00 36° N 04:25:11 10° ENE visible
29 Jun - 06:06:23 10° WNW 06:13:14 64° NNE 06:19:38 10° E daylight
29 Jun - 08:00:27 10° W 08:06:40 45° SSW 08:12:37 10° SE daylight
29 Jun - 09:58:38 10° SW 09:59:49 10° SSW 10:00:58 10° SSW daylight
29 Jun - 21:28:03 10° SSW 21:34:50 33° SSE 21:41:38 10° E visible
29 Jun - 23:20:41 10° WSW 23:28:34 90° SE 23:36:15 10° ENE night (unlit)
